Change the Weather History Date:

Sunday, December 25, 2011

  Actual Average Record
Temperature  
Mean Temperature 36 °F -  
Max Temperature 41 °F 30 °F 65 °F (1982)
Min Temperature 32 °F 16 °F -10 °F (1983)
Degree Days  
Heating Degree Days 28    
Moisture  
Dew Point 31 °F    
Average Humidity 83    
Maximum Humidity 93    
Minimum Humidity 70    
Precipitation  
Precipitation 0.00 in - - ()
Sea Level Pressure  
Sea Level Pressure 30.08 in    
Wind  
Wind Speed 10 mph (WSW)    
Max Wind Speed 23 mph    
Max Gust Speed 30 mph    
Visibility 10 miles    
Events      
Averages and records for this station are not official NWS values.
T = Trace of Precipitation, MM = Missing Value Source: NWS Daily Summary

Daily Weather History Graph

Daily Weather History Graph

Search for Another Location

Airport or City:

Trip Planner

Search our weather history database for the weather conditions in past years. The results will help you decide how hot, cold, wet, or windy it might be!

Date:

Astronomy

Dec. 25, 2011 Rise Set
Actual Time 8:08 AM EST 5:16 PM EST
Civil Twilight 7:36 AM EST 5:47 PM EST
Nautical Twilight 7:01 AM EST 6:23 PM EST
Astronomical Twilight 6:27 AM EST 6:57 PM EST
Moon 8:45 AM EST (12/25) 6:37 PM EST (12/25)
Length of Visible Light 10h 11m
Length of Day
9h 07m
New Moon, 1% of the Moon is Illuminated
Dec 25
New Moon
Jan 1
First Quarter
Jan 9
Full
Jan 16
Last Quarter
Jan 23
New

Hourly Weather History & Observations

Time (EST) Temp. Windchill Dew Point Humidity Pressure Visibility Wind Dir Wind Speed Gust Speed Precip Events Conditions
12:35 AM 32.0 °F 24.8 °F 30.2 °F 93% 30.15 in 10.0 mi SSW 8.1 mph - N/A   Clear
12:55 AM 32.0 °F 24.8 °F 30.2 °F 93% 30.14 in 10.0 mi SSW 8.1 mph - N/A   Clear
1:15 AM 32.0 °F 26.4 °F 30.2 °F 93% 30.13 in 10.0 mi SSW 5.8 mph - N/A   Clear
1:35 AM 32.0 °F 25.6 °F 30.2 °F 93% 30.12 in 10.0 mi SW 6.9 mph - N/A   Clear
1:54 AM 33.8 °F 27.7 °F 30.2 °F 87% 30.12 in 10.0 mi SW 6.9 mph - N/A   Clear
2:15 AM 33.8 °F 27.0 °F 30.2 °F 87% 30.12 in 10.0 mi SW 8.1 mph - N/A   Clear
2:35 AM 33.8 °F 27.0 °F 30.2 °F 87% 30.11 in 10.0 mi SW 8.1 mph - N/A   Scattered Clouds
2:54 AM 33.8 °F 26.4 °F 30.2 °F 87% 30.10 in 10.0 mi SSW 9.2 mph - N/A   Mostly Cloudy
3:15 AM 33.8 °F 26.4 °F 30.2 °F 87% 30.09 in 10.0 mi South 9.2 mph - N/A   Scattered Clouds
3:34 AM 32.0 °F 24.8 °F 30.2 °F 93% 30.08 in 10.0 mi South 8.1 mph - N/A   Scattered Clouds
3:55 AM 32.0 °F - 30.2 °F 93% 30.08 in 10.0 mi Calm Calm - N/A   Scattered Clouds
4:15 AM 32.0 °F 27.5 °F 30.2 °F 93% 30.09 in 10.0 mi SW 4.6 mph - N/A   Scattered Clouds
4:34 AM 32.0 °F 23.6 °F 30.2 °F 93% 30.06 in 10.0 mi SSW 10.4 mph - N/A   Mostly Cloudy
4:55 AM 32.0 °F 26.4 °F 30.2 °F 93% 30.06 in 10.0 mi SW 5.8 mph - N/A   Scattered Clouds
5:15 AM 32.0 °F 24.2 °F 30.2 °F 93% 30.06 in 10.0 mi SSW 9.2 mph - N/A   Mostly Cloudy
5:34 AM 32.0 °F 24.2 °F 30.2 °F 93% 30.05 in 10.0 mi SSW 9.2 mph - N/A   Mostly Cloudy
5:55 AM 32.0 °F 24.2 °F 30.2 °F 93% 30.05 in 10.0 mi SSW 9.2 mph - N/A   Scattered Clouds
6:14 AM 32.0 °F 24.2 °F 30.2 °F 93% 30.05 in 10.0 mi SSW 9.2 mph - N/A   Clear
6:34 AM 32.0 °F 23.6 °F 30.2 °F 93% 30.04 in 10.0 mi SSW 10.4 mph - N/A   Clear
6:55 AM 32.0 °F 23.0 °F 30.2 °F 93% 30.03 in 10.0 mi SSW 11.5 mph - N/A   Clear
7:15 AM 32.0 °F 23.0 °F 30.2 °F 93% 30.02 in 10.0 mi SSW 11.5 mph - N/A   Scattered Clouds
7:35 AM 32.0 °F 22.5 °F 30.2 °F 93% 30.02 in 10.0 mi SSW 12.7 mph - N/A   Clear
7:55 AM 32.0 °F 23.6 °F 30.2 °F 93% 30.02 in 10.0 mi SSW 10.4 mph 17.3 mph N/A   Clear
8:14 AM 32.0 °F 24.2 °F 30.2 °F 93% 30.01 in 10.0 mi SSW 9.2 mph 17.3 mph N/A   Clear
8:35 AM 32.0 °F 27.5 °F 30.2 °F 93% 30.02 in 10.0 mi SW 4.6 mph - N/A   Clear
8:55 AM 32.0 °F 24.8 °F 30.2 °F 93% 30.02 in 10.0 mi SW 8.1 mph - N/A   Clear
9:15 AM 33.8 °F 25.3 °F 30.2 °F 87% 30.02 in 10.0 mi SSW 11.5 mph - N/A   Clear
9:35 AM 33.8 °F 26.4 °F 30.2 °F 87% 30.01 in 10.0 mi SW 9.2 mph - N/A   Clear
9:54 AM 35.6 °F 29.2 °F 30.2 °F 81% 30.01 in 10.0 mi SW 8.1 mph - N/A   Scattered Clouds
10:15 AM 35.6 °F 28.0 °F 30.2 °F 81% 30.01 in 10.0 mi SW 10.4 mph 16.1 mph N/A   Clear
10:35 AM 37.4 °F 29.3 °F 30.2 °F 75% 30.02 in 10.0 mi WSW 12.7 mph 18.4 mph N/A   Clear
10:54 AM 37.4 °F 28.9 °F 30.2 °F 75% 30.02 in 10.0 mi WSW 13.8 mph 18.4 mph N/A   Mostly Cloudy
11:15 AM 37.4 °F 29.3 °F 30.2 °F 75% 30.02 in 10.0 mi WSW 12.7 mph 18.4 mph N/A   Overcast
11:35 AM 37.4 °F 27.5 °F 30.2 °F 75% 30.02 in 10.0 mi WSW 18.4 mph 23.0 mph N/A   Scattered Clouds
11:54 AM 39.2 °F 31.2 °F 32.0 °F 75% 30.02 in 10.0 mi West 13.8 mph 23.0 mph N/A   Mostly Cloudy
12:15 PM 39.2 °F 30.5 °F 32.0 °F 75% 30.02 in 10.0 mi West 16.1 mph 19.6 mph N/A   Mostly Cloudy
12:35 PM 41.0 °F 31.6 °F 32.0 °F 70% 30.01 in 10.0 mi West 20.7 mph 26.5 mph N/A   Mostly Cloudy
12:54 PM 41.0 °F 31.6 °F 32.0 °F 70% 30.01 in 10.0 mi West 20.7 mph 29.9 mph N/A   Overcast
1:15 PM 41.0 °F 32.8 °F 32.0 °F 70% 30.02 in 10.0 mi West 16.1 mph 29.9 mph N/A   Overcast
1:35 PM 39.2 °F 28.7 °F 32.0 °F 75% 30.02 in 10.0 mi West 23.0 mph 28.8 mph N/A   Overcast
1:55 PM 39.2 °F 29.3 °F 32.0 °F 75% 30.02 in 10.0 mi West 20.7 mph 28.8 mph N/A   Overcast
2:14 PM 39.2 °F 30.2 °F 32.0 °F 75% 30.03 in 10.0 mi West 17.3 mph 29.9 mph N/A   Overcast
2:34 PM 37.4 °F 27.2 °F 32.0 °F 81% 30.04 in 10.0 mi West 19.6 mph 28.8 mph N/A   Overcast
2:55 PM 37.4 °F 27.2 °F 30.2 °F 75% 30.05 in 10.0 mi WNW 19.6 mph 27.6 mph N/A   Overcast
3:14 PM 37.4 °F 29.3 °F 30.2 °F 75% 30.06 in 10.0 mi WNW 12.7 mph 24.2 mph N/A   Overcast
3:35 PM 37.4 °F 28.5 °F 30.2 °F 75% 30.08 in 10.0 mi WNW 15.0 mph 26.5 mph N/A   Overcast
3:55 PM 37.4 °F 28.2 °F 30.2 °F 75% 30.09 in 10.0 mi WNW 16.1 mph 21.9 mph N/A   Overcast
4:14 PM 37.4 °F 29.8 °F 30.2 °F 75% 30.10 in 10.0 mi WNW 11.5 mph 18.4 mph N/A   Overcast
4:35 PM 37.4 °F 28.5 °F 30.2 °F 75% 30.12 in 10.0 mi WNW 15.0 mph 18.4 mph N/A   Overcast
4:55 PM 37.4 °F 29.8 °F 30.2 °F 75% 30.13 in 10.0 mi WNW 11.5 mph 21.9 mph N/A   Overcast
5:14 PM 37.4 °F 29.8 °F 30.2 °F 75% 30.14 in 10.0 mi WNW 11.5 mph 18.4 mph N/A   Overcast
5:35 PM 37.4 °F 29.8 °F 30.2 °F 75% 30.15 in 10.0 mi WNW 11.5 mph - N/A   Overcast
5:55 PM 37.4 °F 29.8 °F 30.2 °F 75% 30.15 in 10.0 mi WNW 11.5 mph - N/A   Overcast
6:14 PM 37.4 °F 30.3 °F 30.2 °F 75% 30.17 in 10.0 mi WNW 10.4 mph - N/A   Overcast
6:35 PM 37.4 °F 29.8 °F 30.2 °F 75% 30.17 in 10.0 mi WNW 11.5 mph 16.1 mph N/A   Overcast
6:55 PM 37.4 °F 30.8 °F 30.2 °F 75% 30.18 in 10.0 mi WNW 9.2 mph - N/A   Overcast
7:35 PM 37.4 °F 32.1 °F 30.2 °F 75% 30.20 in 10.0 mi WNW 6.9 mph - N/A   Overcast
7:54 PM 37.4 °F 30.8 °F 30.2 °F 75% 30.21 in 10.0 mi WNW 9.2 mph 19.6 mph N/A   Overcast
8:15 PM 37.4 °F 30.3 °F 32.0 °F 81% 30.22 in 10.0 mi NW 10.4 mph 17.3 mph N/A   Overcast
8:35 PM 37.4 °F 31.4 °F 32.0 °F 81% 30.22 in 10.0 mi NW 8.1 mph - N/A   Overcast
8:54 PM 37.4 °F 32.1 °F 32.0 °F 81% 30.22 in 10.0 mi WNW 6.9 mph - N/A   Overcast
9:15 PM 37.4 °F 32.8 °F 32.0 °F 81% 30.22 in 10.0 mi WNW 5.8 mph - N/A   Overcast
9:35 PM 37.4 °F 32.8 °F 32.0 °F 81% 30.23 in 10.0 mi WNW 5.8 mph - N/A   Overcast
10:15 PM 37.4 °F 32.1 °F 30.2 °F 75% 30.24 in 10.0 mi WNW 6.9 mph - N/A   Overcast
10:35 PM 37.4 °F 32.1 °F 30.2 °F 75% 30.24 in 10.0 mi WNW 6.9 mph - N/A   Overcast
10:54 PM 37.4 °F 32.1 °F 30.2 °F 75% 30.24 in 10.0 mi WNW 6.9 mph - N/A   Overcast
11:15 PM 37.4 °F 32.1 °F 30.2 °F 75% 30.25 in 10.0 mi WNW 6.9 mph - N/A   Overcast
11:35 PM 37.4 °F 31.4 °F 30.2 °F 75% 30.26 in 10.0 mi WNW 8.1 mph - N/A   Overcast
11:54 PM 37.4 °F 32.8 °F 30.2 °F 75% 30.26 in 10.0 mi WNW 5.8 mph - N/A   Overcast